Regional Weather Roundup
Issued by NWS

Home | Current Version | Previous Version | Text Only | Print | Product List | Glossary On
Versions: 1 2 3 4 5 6 7 8 9 10 11 12 13 14 15 16 17 18 19 20 21 22 23 24 25 26 27 28 29 30 31 32 33 34 35 36 37 38 39 40 41 42 43 44 45 46 47 48 49 50
000
ASUS44 KMEG 042310
RWRTN
TENNESSEE HOURLY STATE WEATHER ROUNDUP
NATIONAL WEATHER SERVICE MEMPHIS TN
600 PM CDT MON MAY 04 2015

TNZ002-004-019-021-049-052-054-088>092-050000-
WEST TENNESSEE

CITY           SKY/WX    TMP DP  RH WIND       PRES   REMARKS
MEMPHIS INTL   MOSUNNY   82  49  31 S10       30.15F
NWS MEMPHIS      N/A     84 N/A N/A MISG        N/A
JACKSON        SUNNY     81  51  35 S6        30.17S
DYERSBURG      SUNNY     82  46  28 S5G17     30.16R
PARIS          SUNNY     79  54  41 S7        30.17S
LEXINGTON      MOSUNNY   81  48  32 SW12      30.17S
$$

TNZ008-025-027-028-033-062-065-066-050000-
NORTH MIDDLE TENNESSEE

CITY           SKY/WX    TMP DP  RH WIND       PRES   REMARKS
NASHVILLE      PTSUNNY   81  51  35 S9        30.19S
CLARKSVILLE    MOSUNNY   80  54  40 S9        30.17S
SMYRNA         MOSUNNY   81  51  35 SW8       30.20S
COOKEVILLE     SUNNY     81  52  36 W6        30.22R
CROSSVILLE     MOSUNNY   76  46  34 SW6       30.26S
$$

TNZ061-075-076-078-094-096-097-050000-
SOUTH MIDDLE TENNESSEE

CITY           SKY/WX    TMP DP  RH WIND       PRES   REMARKS
FAYETTEVILLE     N/A     79  52  38 SW5       30.22S
TULLAHOMA      SUNNY     77  48  36 SW7       30.23S
WINCHESTER     PTSUNNY   81  50  34 SW5       30.22S
MCMINNVILLE    SUNNY     81  54  39 W6        30.22S
COLUMBIA       SUNNY     81  55  41 SW6       30.18F
SHELBYVILLE    SUNNY     79  54  41 S7        30.22S
$$

TNZ017-018-042-046-047-050000-
NORTHEAST TENNESSEE

CITY           SKY/WX    TMP DP  RH WIND       PRES   REMARKS
TRI CITIES     MOSUNNY   78  49  35 W7        30.24S
ELIZABETHTON   CLEAR     75  48  38 W5        30.25S
$$

TNZ012-013-036-069-073-074-050000-
CENTRAL EAST TENNESSEE

CITY           SKY/WX    TMP DP  RH WIND       PRES   REMARKS
KNOXVILLE      MOSUNNY   79  46  31 W7        30.21F
OAK RIDGE      SUNNY     81  49  32 W5        30.22F
GATLINBURG     CLEAR     79  48  34 W7        30.22S
MORRISTOWN     CLEAR     79  46  31 CALM      30.24F
$$

TNZ083-085-099-050000-
SOUTHEAST TENNESSEE

CITY           SKY/WX    TMP DP  RH WIND       PRES   REMARKS
CHATTANOOGA    MOSUNNY   81  48  31 VRB3      30.22S
$$

SKY/WX REPORTED AS FAIR MEANS FEW OR NO CLOUDS BELOW
12 THOUSAND FEET.



USA.gov is the U.S. government's official web portal to all federal, state and local government web resources and services.